DAL8021 KMSO-KBOI

Flight info

Callsign DAL8021
Flight time 0h 47m
Altitude 39000
Route GRZLY4 MSO DERSO KOURT4
Aircraft A319/M-SDE3FGHIRWY/LB1

Departure

Time 2026-04-12 08:50
Airport Missoula Montana Airport (KMSO)

Arrival

Time 2026-04-12 09:37
Airport Boise Air Terminal/Gowen Field (KBOI)
Time Latitude Longitude Altitude Speed Heading
2026-04-12 08:08 46.91811 -114.08421 3206 ft 0 kts 53°
2026-04-12 08:23 46.91796 -114.08448 3199 ft 4 kts 48°
2026-04-12 08:24 46.91777 -114.08475 3203 ft 4 kts 29°
2026-04-12 08:24 46.91756 -114.08483 3201 ft 4 kts 326°
2026-04-12 08:24 46.91752 -114.08479 3202 ft 0 kts 311°
2026-04-12 08:28 46.91753 -114.08481 3202 ft 1 kts 311°
2026-04-12 08:29 46.91758 -114.08489 3202 ft 2 kts 311°
2026-04-12 08:29 46.91773 -114.08515 3202 ft 5 kts 310°
2026-04-12 08:29 46.91804 -114.08567 3205 ft 8 kts 310°
2026-04-12 08:29 46.91843 -114.08635 3203 ft 9 kts 309°
2026-04-12 08:30 46.91881 -114.08692 3203 ft 8 kts 330°
2026-04-12 08:30 46.91912 -114.08750 3204 ft 8 kts 303°
2026-04-12 08:30 46.91934 -114.08819 3204 ft 8 kts 265°
2026-04-12 08:30 46.91905 -114.08882 3204 ft 8 kts 222°
2026-04-12 08:31 46.91860 -114.08935 3204 ft 9 kts 220°
2026-04-12 08:31 46.91813 -114.08993 3204 ft 9 kts 220°
2026-04-12 08:31 46.91784 -114.09070 3204 ft 9 kts 272°
2026-04-12 08:31 46.91817 -114.09150 3204 ft 10 kts 311°
2026-04-12 08:32 46.91864 -114.09225 3202 ft 10 kts 312°
2026-04-12 08:32 46.91912 -114.09308 3200 ft 11 kts 309°
2026-04-12 08:32 46.91962 -114.09397 3202 ft 12 kts 312°
2026-04-12 08:32 46.92016 -114.09487 3201 ft 12 kts 310°
2026-04-12 08:33 46.92073 -114.09582 3202 ft 13 kts 310°
2026-04-12 08:33 46.92130 -114.09682 3202 ft 13 kts 310°
2026-04-12 08:33 46.92191 -114.09785 3203 ft 14 kts 311°
2026-04-12 08:33 46.92255 -114.09895 3203 ft 15 kts 309°
2026-04-12 08:34 46.92325 -114.10017 3201 ft 16 kts 310°
2026-04-12 08:34 46.92402 -114.10149 3203 ft 18 kts 313°
2026-04-12 08:34 46.92489 -114.10290 3202 ft 19 kts 310°
2026-04-12 08:34 46.92573 -114.10442 3201 ft 15 kts 304°
2026-04-12 08:35 46.92562 -114.10542 3200 ft 9 kts 224°
2026-04-12 08:35 46.92552 -114.10555 3202 ft 0 kts 221°
2026-04-12 08:48 46.92548 -114.10561 3198 ft 2 kts 221°
2026-04-12 08:48 46.92529 -114.10584 3198 ft 6 kts 219°
2026-04-12 08:48 46.92478 -114.10605 3199 ft 10 kts 170°
2026-04-12 08:49 46.92399 -114.10507 3200 ft 36 kts 130°
2026-04-12 08:49 46.92054 -114.09920 3203 ft 112 kts 130°
2026-04-12 08:49 46.91410 -114.08822 3213 ft 168 kts 130°
2026-04-12 08:49 46.90574 -114.07534 3735 ft 177 kts 141°
2026-04-12 08:50 46.89418 -114.07047 4392 ft 179 kts 188°
2026-04-12 08:50 46.88255 -114.07651 5051 ft 182 kts 199°
2026-04-12 08:50 46.86939 -114.07714 5424 ft 204 kts 168°
2026-04-12 08:50 46.85467 -114.07301 5774 ft 227 kts 171°
2026-04-12 08:51 46.83815 -114.06898 6189 ft 253 kts 172°
2026-04-12 08:51 46.81999 -114.06484 6796 ft 271 kts 172°
2026-04-12 08:51 46.80111 -114.06066 7712 ft 277 kts 173°
2026-04-12 08:51 46.78190 -114.05647 8716 ft 280 kts 173°
2026-04-12 08:52 46.76248 -114.05225 9732 ft 284 kts 174°
2026-04-12 08:52 46.74278 -114.04798 10660 ft 287 kts 174°
2026-04-12 08:52 46.72301 -114.04225 11535 ft 295 kts 162°
2026-04-12 08:52 46.70532 -114.02641 12388 ft 305 kts 137°
2026-04-12 08:53 46.69348 -114.00090 13238 ft 315 kts 112°
2026-04-12 08:53 46.68914 -113.96912 13852 ft 330 kts 97°
2026-04-12 08:53 46.68376 -113.93558 14058 ft 352 kts 117°
2026-04-12 08:53 46.66842 -113.90700 14214 ft 370 kts 143°
2026-04-12 08:54 46.64502 -113.89031 14417 ft 382 kts 170°
2026-04-12 08:54 46.61852 -113.89023 14958 ft 384 kts 194°
2026-04-12 08:54 46.59295 -113.90177 15633 ft 385 kts 203°
2026-04-12 08:54 46.56808 -113.91671 16338 ft 388 kts 205°
2026-04-12 08:55 46.54295 -113.93197 17029 ft 392 kts 204°
2026-04-12 08:55 46.51726 -113.94596 17718 ft 396 kts 201°
2026-04-12 08:55 46.49103 -113.95830 18347 ft 399 kts 199°
2026-04-12 08:55 46.46439 -113.96931 18923 ft 402 kts 197°
2026-04-12 08:56 46.43722 -113.97968 19511 ft 404 kts 197°
2026-04-12 08:56 46.40989 -113.98981 20084 ft 406 kts 197°
2026-04-12 08:56 46.38245 -114.00010 20632 ft 408 kts 197°
2026-04-12 08:56 46.36422 -114.00706 20996 ft 410 kts 197°
2026-04-12 08:57 46.33660 -114.01778 21531 ft 412 kts 197°
2026-04-12 08:57 46.30884 -114.02869 22050 ft 414 kts 197°
2026-04-12 08:57 46.28091 -114.03976 22558 ft 416 kts 198°
2026-04-12 08:57 46.25282 -114.05094 23054 ft 419 kts 198°
2026-04-12 08:58 46.22461 -114.06215 23520 ft 421 kts 198°
2026-04-12 08:58 46.19626 -114.07340 23926 ft 423 kts 197°
2026-04-12 08:58 46.16776 -114.08464 24327 ft 425 kts 197°
2026-04-12 08:58 46.13951 -114.09572 24717 ft 427 kts 197°
2026-04-12 08:59 46.11079 -114.10700 25107 ft 429 kts 197°
2026-04-12 08:59 46.08193 -114.11834 25485 ft 431 kts 197°
2026-04-12 08:59 46.05294 -114.12975 25859 ft 433 kts 198°
2026-04-12 08:59 46.02384 -114.14119 26219 ft 434 kts 197°
2026-04-12 09:00 45.99458 -114.15263 26595 ft 436 kts 197°
2026-04-12 09:00 45.96516 -114.16405 26957 ft 437 kts 197°
2026-04-12 09:00 45.93576 -114.17548 27326 ft 438 kts 197°
2026-04-12 09:00 45.90670 -114.18679 27832 ft 436 kts 197°
2026-04-12 09:01 45.87742 -114.19819 28374 ft 434 kts 198°
2026-04-12 09:01 45.84832 -114.20952 28909 ft 432 kts 198°
2026-04-12 09:01 45.81931 -114.22080 29457 ft 430 kts 198°
2026-04-12 09:01 45.79045 -114.23200 29982 ft 428 kts 198°
2026-04-12 09:02 45.76176 -114.24308 30490 ft 425 kts 198°
2026-04-12 09:02 45.73322 -114.25412 31022 ft 422 kts 198°
2026-04-12 09:02 45.70497 -114.26503 31558 ft 419 kts 198°
2026-04-12 09:02 45.67702 -114.27581 32114 ft 415 kts 198°
2026-04-12 09:03 45.64924 -114.28652 32681 ft 411 kts 198°
2026-04-12 09:03 45.62207 -114.29700 33244 ft 408 kts 198°
2026-04-12 09:03 45.59492 -114.30749 33810 ft 404 kts 198°
2026-04-12 09:03 45.56775 -114.31794 34258 ft 402 kts 198°
2026-04-12 09:04 45.54079 -114.32829 34662 ft 400 kts 198°
2026-04-12 09:04 45.51388 -114.33861 35021 ft 400 kts 198°
2026-04-12 09:04 45.48696 -114.34895 35331 ft 400 kts 198°
2026-04-12 09:04 45.46002 -114.35928 35637 ft 401 kts 198°
2026-04-12 09:05 45.43307 -114.36960 35956 ft 401 kts 198°
2026-04-12 09:05 45.40612 -114.37992 36273 ft 401 kts 198°
2026-04-12 09:05 45.37918 -114.39025 36588 ft 401 kts 198°
2026-04-12 09:05 45.35222 -114.40062 36881 ft 402 kts 198°
2026-04-12 09:06 45.32523 -114.41096 37175 ft 402 kts 198°
2026-04-12 09:06 45.29823 -114.42124 37494 ft 401 kts 198°
2026-04-12 09:06 45.27161 -114.43134 37745 ft 402 kts 198°
2026-04-12 09:06 45.24461 -114.44159 37981 ft 402 kts 198°
2026-04-12 09:07 45.21753 -114.45188 38260 ft 403 kts 198°
2026-04-12 09:07 45.19049 -114.46214 38494 ft 403 kts 198°
2026-04-12 09:07 45.16340 -114.47244 38692 ft 403 kts 198°
2026-04-12 09:07 45.13630 -114.48275 38813 ft 404 kts 198°
2026-04-12 09:08 45.10893 -114.49310 38846 ft 408 kts 198°
2026-04-12 09:08 45.05403 -114.51376 38841 ft 407 kts 198°
2026-04-12 09:09 44.99929 -114.53432 38840 ft 407 kts 198°
2026-04-12 09:09 44.94460 -114.55490 38839 ft 407 kts 198°
2026-04-12 09:10 44.88992 -114.57552 38830 ft 407 kts 198°
2026-04-12 09:10 44.83516 -114.59608 38824 ft 407 kts 197°
2026-04-12 09:11 44.78044 -114.61653 38822 ft 407 kts 198°
2026-04-12 09:11 44.72604 -114.63680 38835 ft 406 kts 197°
2026-04-12 09:12 44.67137 -114.65721 38836 ft 406 kts 197°
2026-04-12 09:12 44.61674 -114.67757 38814 ft 406 kts 197°
2026-04-12 09:13 44.56203 -114.69785 38815 ft 406 kts 197°
2026-04-12 09:13 44.50745 -114.71807 38812 ft 405 kts 197°
2026-04-12 09:14 44.45299 -114.73821 38809 ft 405 kts 197°
2026-04-12 09:14 44.39885 -114.75818 38797 ft 404 kts 197°
2026-04-12 09:15 44.34444 -114.77822 38804 ft 403 kts 197°
2026-04-12 09:15 44.29018 -114.79822 38801 ft 403 kts 197°
2026-04-12 09:16 44.23592 -114.81818 38801 ft 402 kts 197°
2026-04-12 09:16 44.18211 -114.83793 38785 ft 402 kts 197°
2026-04-12 09:17 44.12803 -114.85768 38807 ft 401 kts 197°
2026-04-12 09:17 44.07395 -114.87726 38800 ft 401 kts 197°
2026-04-12 09:18 44.01978 -114.89687 38789 ft 401 kts 197°
2026-04-12 09:18 43.96614 -114.91647 38793 ft 401 kts 197°
2026-04-12 09:19 43.91191 -114.93622 38790 ft 402 kts 197°
2026-04-12 09:19 43.88482 -114.94603 38431 ft 403 kts 197°
2026-04-12 09:19 43.85760 -114.95594 37572 ft 403 kts 197°
2026-04-12 09:20 43.80403 -114.97534 36265 ft 399 kts 196°
2026-04-12 09:20 43.77715 -114.98500 35538 ft 399 kts 196°
2026-04-12 09:20 43.72331 -115.00433 34065 ft 397 kts 196°
2026-04-12 09:21 43.69652 -115.01400 33239 ft 396 kts 196°
2026-04-12 09:21 43.66974 -115.02368 32201 ft 399 kts 196°
2026-04-12 09:21 43.64311 -115.03332 31289 ft 400 kts 195°
2026-04-12 09:21 43.61590 -115.04310 30326 ft 403 kts 195°
2026-04-12 09:22 43.58859 -115.05285 29238 ft 407 kts 195°
2026-04-12 09:22 43.56107 -115.06265 28127 ft 409 kts 195°
2026-04-12 09:22 43.53370 -115.07238 26979 ft 411 kts 195°
2026-04-12 09:22 43.50590 -115.08227 25847 ft 414 kts 195°
2026-04-12 09:23 43.47791 -115.09225 24771 ft 415 kts 195°
2026-04-12 09:23 43.44991 -115.10253 23707 ft 414 kts 197°
2026-04-12 09:23 43.42424 -115.11943 22548 ft 409 kts 213°
2026-04-12 09:23 43.40344 -115.14578 21443 ft 408 kts 230°
2026-04-12 09:24 43.38908 -115.17955 20514 ft 413 kts 244°
2026-04-12 09:24 43.38227 -115.21781 19406 ft 425 kts 262°
2026-04-12 09:24 43.38461 -115.25870 18341 ft 437 kts 279°
2026-04-12 09:24 43.39229 -115.29932 17406 ft 436 kts 281°
2026-04-12 09:25 43.39981 -115.33889 17127 ft 419 kts 280°
2026-04-12 09:25 43.40694 -115.37703 16862 ft 405 kts 280°
2026-04-12 09:25 43.41375 -115.41406 16599 ft 393 kts 279°
2026-04-12 09:25 43.42029 -115.44996 16340 ft 382 kts 279°
2026-04-12 09:26 43.42669 -115.48503 16084 ft 372 kts 279°
2026-04-12 09:26 43.43291 -115.51912 15836 ft 361 kts 279°
2026-04-12 09:26 43.43894 -115.55213 15584 ft 351 kts 279°
2026-04-12 09:26 43.44489 -115.58431 15334 ft 344 kts 281°
2026-04-12 09:27 43.45358 -115.61489 15082 ft 341 kts 289°
2026-04-12 09:27 43.46317 -115.64445 14829 ft 334 kts 289°
2026-04-12 09:27 43.47257 -115.67343 14579 ft 328 kts 289°
2026-04-12 09:27 43.48174 -115.70163 14359 ft 325 kts 289°
2026-04-12 09:28 43.49096 -115.73004 13942 ft 327 kts 289°
2026-04-12 09:28 43.50021 -115.75862 13626 ft 324 kts 289°
2026-04-12 09:28 43.50937 -115.78687 13140 ft 321 kts 290°
2026-04-12 09:28 43.51843 -115.81480 12513 ft 319 kts 290°
2026-04-12 09:29 43.52743 -115.84256 11894 ft 316 kts 290°
2026-04-12 09:29 43.53636 -115.87013 11267 ft 314 kts 291°
2026-04-12 09:29 43.54518 -115.89733 10759 ft 308 kts 292°
2026-04-12 09:29 43.55386 -115.92426 10372 ft 306 kts 292°
2026-04-12 09:30 43.56242 -115.95094 9811 ft 303 kts 292°
2026-04-12 09:30 43.57091 -115.97748 9139 ft 302 kts 293°
2026-04-12 09:30 43.57937 -116.00385 8526 ft 298 kts 293°
2026-04-12 09:30 43.58751 -116.02918 8292 ft 286 kts 293°
2026-04-12 09:31 43.59544 -116.05369 8185 ft 274 kts 294°
2026-04-12 09:31 43.60328 -116.07701 8049 ft 261 kts 295°
2026-04-12 09:31 43.61089 -116.09908 7973 ft 247 kts 295°
2026-04-12 09:31 43.61812 -116.11992 7795 ft 239 kts 295°
2026-04-12 09:32 43.62527 -116.14054 7524 ft 236 kts 295°
2026-04-12 09:32 43.63230 -116.16085 7281 ft 233 kts 295°
2026-04-12 09:32 43.63923 -116.18101 7048 ft 233 kts 295°
2026-04-12 09:32 43.64612 -116.20115 6805 ft 231 kts 295°
2026-04-12 09:33 43.65297 -116.22119 6569 ft 230 kts 295°
2026-04-12 09:33 43.65976 -116.24110 6330 ft 228 kts 295°
2026-04-12 09:33 43.66617 -116.26075 6103 ft 227 kts 289°
2026-04-12 09:33 43.66818 -116.28218 5786 ft 225 kts 264°
2026-04-12 09:34 43.66416 -116.30291 5469 ft 223 kts 242°
2026-04-12 09:34 43.65499 -116.31991 5176 ft 220 kts 219°
2026-04-12 09:34 43.64218 -116.33096 4890 ft 217 kts 199°
2026-04-12 09:34 43.62762 -116.33479 4595 ft 209 kts 178°
2026-04-12 09:35 43.61382 -116.33154 4370 ft 194 kts 159°
2026-04-12 09:35 43.60246 -116.32311 4127 ft 176 kts 141°
2026-04-12 09:35 43.59464 -116.31217 3929 ft 151 kts 125°
2026-04-12 09:35 43.58961 -116.30031 3755 ft 139 kts 112°
2026-04-12 09:36 43.58559 -116.28841 3554 ft 135 kts 114°
2026-04-12 09:36 43.58151 -116.27685 3396 ft 134 kts 112°
2026-04-12 09:36 43.57756 -116.26528 3251 ft 133 kts 111°
2026-04-12 09:36 43.57371 -116.25368 3073 ft 133 kts 114°
2026-04-12 09:37 43.56982 -116.24191 2863 ft 136 kts 112°
2026-04-12 09:37 43.56629 -116.23154 2850 ft 102 kts 115°
2026-04-12 09:37 43.56400 -116.22487 2856 ft 52 kts 116°
2026-04-12 09:37 43.56279 -116.22138 2853 ft 35 kts 115°
2026-04-12 09:38 43.56181 -116.21853 2862 ft 32 kts 114°
2026-04-12 09:38 43.56091 -116.21589 2866 ft 30 kts 115°
2026-04-12 09:38 43.56011 -116.21354 2870 ft 24 kts 110°
2026-04-12 09:38 43.56097 -116.21223 2870 ft 21 kts 25°
2026-04-12 09:39 43.56231 -116.21136 2871 ft 19 kts 22°
2026-04-12 09:39 43.56307 -116.21243 2868 ft 15 kts 294°
2026-04-12 09:39 43.56311 -116.21255 2868 ft 0 kts 294°
2026-04-12 09:43 43.56312 -116.21258 2868 ft 5 kts 294°
2026-04-12 09:43 43.56368 -116.21427 2865 ft 16 kts 295°
2026-04-12 09:44 43.56415 -116.21562 2857 ft 16 kts 296°
2026-04-12 09:44 43.56441 -116.21636 2858 ft 8 kts 296°
2026-04-12 09:44 43.56468 -116.21701 2854 ft 8 kts 314°
2026-04-12 09:44 43.56530 -116.21738 2857 ft 12 kts 332°
2026-04-12 09:45 43.56574 -116.21817 2855 ft 12 kts 296°
2026-04-12 09:45 43.56620 -116.21951 2855 ft 16 kts 295°
2026-04-12 09:45 43.56640 -116.22016 2854 ft 8 kts 271°
2026-04-12 09:45 43.56670 -116.21987 2858 ft 8 kts 25°
2026-04-12 09:46 43.56698 -116.21966 2857 ft 0 kts 17°